TimeAST,TemperatureF,Dew PointF,Humidity,Sea Level PressureIn,VisibilityMPH,Wind Direction,Wind SpeedMPH,Gust SpeedMPH,PrecipitationIn,Events,Conditions,WindDirDegrees,DateUTC
12:56 AM,79.0,72.0,79,29.98,10.0,South,3.5,-,N/A,,Scattered Clouds,190,2012-04-13 04:56:00
1:56 AM,78.1,72.0,81,29.98,10.0,Calm,Calm,-,N/A,,Scattered Clouds,0,2012-04-13 05:56:00
2:56 AM,77.0,71.1,82,29.97,10.0,East,4.6,-,N/A,,Scattered Clouds,100,2012-04-13 06:56:00
3:56 AM,75.9,71.1,85,29.96,10.0,SE,4.6,-,N/A,,Scattered Clouds,130,2012-04-13 07:56:00
4:56 AM,75.9,71.1,85,29.96,10.0,SE,3.5,-,N/A,,Scattered Clouds,130,2012-04-13 08:56:00
5:56 AM,75.9,70.0,82,29.97,10.0,Calm,Calm,-,N/A,,Scattered Clouds,0,2012-04-13 09:56:00
6:56 AM,78.1,71.1,79,29.98,10.0,Calm,Calm,-,N/A,,Partly Cloudy,0,2012-04-13 10:56:00
7:56 AM,81.0,71.1,72,29.99,10.0,Variable,3.5,-,N/A,,Partly Cloudy,0,2012-04-13 11:56:00
8:17 AM,82.4,71.6,70,30.00,2.5,WSW,3.5,-,N/A,,Haze,250,2012-04-13 12:17:00
8:24 AM,82.4,71.6,70,30.00,10.0,Calm,Calm,-,N/A,,Partly Cloudy,0,2012-04-13 12:24:00
8:56 AM,84.0,71.1,65,30.00,10.0,West,3.5,-,N/A,,Partly Cloudy,280,2012-04-13 12:56:00
9:56 AM,87.1,69.1,55,30.00,10.0,Variable,3.5,-,N/A,,Partly Cloudy,0,2012-04-13 13:56:00
10:56 AM,84.0,71.1,65,30.00,10.0,NW,8.1,-,N/A,,Scattered Clouds,320,2012-04-13 14:56:00
11:56 AM,84.9,72.0,65,29.99,10.0,NNW,9.2,-,N/A,,Scattered Clouds,340,2012-04-13 15:56:00
12:56 PM,86.0,73.9,67,29.98,10.0,North,9.2,-,N/A,,Scattered Clouds,360,2012-04-13 16:56:00
1:56 PM,84.0,73.0,69,29.96,10.0,North,11.5,-,N/A,,Scattered Clouds,360,2012-04-13 17:56:00
2:56 PM,84.0,73.0,69,29.95,9.0,North,9.2,16.1,N/A,,Scattered Clouds,360,2012-04-13 18:56:00
3:56 PM,81.0,73.0,77,29.96,10.0,NNE,4.6,-,N/A,,Scattered Clouds,30,2012-04-13 19:56:00
4:56 PM,75.9,72.0,87,29.96,4.0,Calm,Calm,-,0.18,Rain,Light Rain,0,2012-04-13 20:56:00
5:56 PM,73.9,69.1,85,29.98,8.0,Calm,Calm,-,0.29,Rain,Light Rain,0,2012-04-13 21:56:00
6:56 PM,73.9,70.0,87,29.98,10.0,Calm,Calm,-,0.08,Rain,Light Rain,0,2012-04-13 22:56:00
7:56 PM,75.9,71.1,85,29.99,10.0,WSW,4.6,-,0.00,,Scattered Clouds,240,2012-04-13 23:56:00
8:56 PM,75.9,71.1,85,30.00,10.0,Calm,Calm,-,N/A,,Scattered Clouds,0,2012-04-14 00:56:00
9:56 PM,77.0,71.1,82,30.01,10.0,Calm,Calm,-,N/A,,Mostly Cloudy,0,2012-04-14 01:56:00
10:56 PM,75.9,72.0,87,30.02,7.0,Calm,Calm,-,0.00,Rain,Light Rain,0,2012-04-14 02:56:00
11:56 PM,75.0,71.1,87,30.00,10.0,SSE,3.5,-,0.02,,Mostly Cloudy,150,2012-04-14 03:56:00